Time,TemperatureF,DewpointF,PressureIn,WindDirection,WindDirectionDegrees,WindSpeedMPH,WindSpeedGustMPH,Humidity,HourlyPrecipIn,Conditions,Clouds,dailyrainin,SoftwareType,DateUTC
2013-01-18 00:03:00,25.5,8.5,-100.00,North,-999,-999.0,-999.0,52,-99.99,,,-99.99,,2013-01-18 05:03:00,
2013-01-18 00:07:00,25.7,8.9,-100.00,North,-999,-999.0,-999.0,53,-99.99,,,-99.99,,2013-01-18 05:07:00,
2013-01-18 00:12:00,25.5,9.5,-100.00,North,-999,-999.0,-999.0,55,-99.99,,,-99.99,,2013-01-18 05:12:00,
2013-01-18 00:17:00,25.5,8.3,-100.00,North,-999,-999.0,-999.0,52,-99.99,,,-99.99,,2013-01-18 05:17:00,
2013-01-18 00:20:00,25.3,8.1,-100.00,North,-999,-999.0,-999.0,52,-99.99,,,-99.99,,2013-01-18 05:20:00,
2013-01-18 00:25:00,25.3,8.4,-100.00,North,-999,-999.0,-999.0,52,-99.99,,,-99.99,,2013-01-18 05:25:00,
2013-01-18 00:30:00,25.3,9.2,-100.00,North,-999,-999.0,-999.0,55,-99.99,,,-99.99,,2013-01-18 05:30:00,
2013-01-18 00:37:00,25.3,9.1,-100.00,North,-999,-999.0,-999.0,54,-99.99,,,-99.99,,2013-01-18 05:37:00,
2013-01-18 00:42:00,25.3,8.7,-100.00,North,-999,-999.0,-999.0,53,-99.99,,,-99.99,,2013-01-18 05:42:00,
2013-01-18 00:47:00,25.3,8.9,-100.00,North,-999,-999.0,-999.0,54,-99.99,,,-99.99,,2013-01-18 05:47:00,
2013-01-18 00:52:00,25.3,10.6,-100.00,North,-999,-999.0,-999.0,59,-99.99,,,-99.99,,2013-01-18 05:52:00,
2013-01-18 01:00:00,25.2,8.8,-100.00,North,-999,-999.0,-999.0,54,-99.99,,,-99.99,,2013-01-18 06:00:00,
2013-01-18 01:05:00,25.2,8.2,-100.00,North,-999,-999.0,-999.0,53,-99.99,,,-99.99,,2013-01-18 06:05:00,
2013-01-18 01:10:00,25.2,8.5,-100.00,North,-999,-999.0,-999.0,53,-99.99,,,-99.99,,2013-01-18 06:10:00,
2013-01-18 01:15:00,25.2,8.2,-100.00,North,-999,-999.0,-999.0,53,-99.99,,,-99.99,,2013-01-18 06:15:00,
2013-01-18 01:20:00,25.0,10.0,-100.00,North,-999,-999.0,-999.0,58,-99.99,,,-99.99,,2013-01-18 06:20:00,
2013-01-18 01:25:00,25.0,8.5,-100.00,North,-999,-999.0,-999.0,54,-99.99,,,-99.99,,2013-01-18 06:25:00,
2013-01-18 01:30:00,25.0,8.2,-100.00,North,-999,-999.0,-999.0,53,-99.99,,,-99.99,,2013-01-18 06:30:00,
2013-01-18 01:35:00,25.0,9.4,-100.00,North,-999,-999.0,-999.0,56,-99.99,,,-99.99,,2013-01-18 06:35:00,
2013-01-18 01:40:00,25.0,9.4,-100.00,North,-999,-999.0,-999.0,56,-99.99,,,-99.99,,2013-01-18 06:40:00,
2013-01-18 01:45:00,24.8,8.0,-100.00,North,-999,-999.0,-999.0,53,-99.99,,,-99.99,,2013-01-18 06:45:00,
2013-01-18 01:52:00,24.8,8.0,-100.00,North,-999,-999.0,-999.0,53,-99.99,,,-99.99,,2013-01-18 06:52:00,
2013-01-18 01:57:00,24.6,7.3,-100.00,North,-999,-999.0,-999.0,51,-99.99,,,-99.99,,2013-01-18 06:57:00,
2013-01-18 02:02:00,24.6,7.8,-100.00,North,-999,-999.0,-999.0,53,-99.99,,,-99.99,,2013-01-18 07:02:00,
2013-01-18 02:07:00,24.6,7.8,-100.00,North,-999,-999.0,-999.0,53,-99.99,,,-99.99,,2013-01-18 07:07:00,
2013-01-18 02:12:00,24.4,7.7,-100.00,North,-999,-999.0,-999.0,53,-99.99,,,-99.99,,2013-01-18 07:12:00,
2013-01-18 02:17:00,24.4,9.1,-100.00,North,-999,-999.0,-999.0,57,-99.99,,,-99.99,,2013-01-18 07:17:00,
2013-01-18 02:22:00,24.4,8.9,-100.00,North,-999,-999.0,-999.0,56,-99.99,,,-99.99,,2013-01-18 07:22:00,
2013-01-18 02:27:00,24.4,6.6,-100.00,North,-999,-999.0,-999.0,50,-99.99,,,-99.99,,2013-01-18 07:27:00,
2013-01-18 02:32:00,24.3,8.0,-100.00,North,-999,-999.0,-999.0,54,-99.99,,,-99.99,,2013-01-18 07:32:00,
2013-01-18 02:37:00,24.3,6.9,-100.00,North,-999,-999.0,-999.0,51,-99.99,,,-99.99,,2013-01-18 07:37:00,
2013-01-18 02:42:00,24.1,6.7,-100.00,North,-999,-999.0,-999.0,51,-99.99,,,-99.99,,2013-01-18 07:42:00,
2013-01-18 02:47:00,24.1,6.4,-100.00,North,-999,-999.0,-999.0,50,-99.99,,,-99.99,,2013-01-18 07:47:00,
2013-01-18 02:52:00,23.9,6.3,-100.00,North,-999,-999.0,-999.0,51,-99.99,,,-99.99,,2013-01-18 07:52:00,
2013-01-18 02:57:00,23.9,6.7,-100.00,North,-999,-999.0,-999.0,52,-99.99,,,-99.99,,2013-01-18 07:57:00,
2013-01-18 03:02:00,23.9,6.0,-100.00,North,-999,-999.0,-999.0,50,-99.99,,,-99.99,,2013-01-18 08:02:00,
2013-01-18 03:07:00,23.7,6.9,-100.00,North,-999,-999.0,-999.0,53,-99.99,,,-99.99,,2013-01-18 08:07:00,
2013-01-18 03:12:00,23.5,6.8,-100.00,North,-999,-999.0,-999.0,53,-99.99,,,-99.99,,2013-01-18 08:12:00,
2013-01-18 03:17:00,23.4,6.6,-100.00,North,-999,-999.0,-999.0,53,-99.99,,,-99.99,,2013-01-18 08:17:00,
2013-01-18 03:22:00,23.4,-99.9,-100.00,North,-999,-999.0,-999.0,49,-99.99,,,-99.99,,2013-01-18 08:22:00,
2013-01-18 03:27:00,23.2,-99.9,-100.00,North,-999,-999.0,-999.0,46,-99.99,,,-99.99,,2013-01-18 08:27:00,
2013-01-18 03:32:00,23.0,-99.9,-100.00,North,-999,-999.0,-999.0,47,-99.99,,,-99.99,,2013-01-18 08:32:00,
2013-01-18 03:37:00,22.8,-99.9,-100.00,North,-999,-999.0,-999.0,47,-99.99,,,-99.99,,2013-01-18 08:37:00,
2013-01-18 03:42:00,22.5,-99.9,-100.00,North,-999,-999.0,-999.0,41,-99.99,,,-99.99,,2013-01-18 08:42:00,
2013-01-18 03:48:00,22.5,-99.9,-100.00,North,-999,-999.0,-999.0,46,-99.99,,,-99.99,,2013-01-18 08:48:00,
2013-01-18 03:53:00,22.3,-99.9,-100.00,North,-999,-999.0,-999.0,45,-99.99,,,-99.99,,2013-01-18 08:53:00,
2013-01-18 03:58:00,22.1,-99.9,-100.00,North,-999,-999.0,-999.0,46,-99.99,,,-99.99,,2013-01-18 08:58:00,
2013-01-18 04:03:00,21.9,-99.9,-100.00,North,-999,-999.0,-999.0,48,-99.99,,,-99.99,,2013-01-18 09:03:00,
2013-01-18 04:08:00,21.7,-99.9,-100.00,North,-999,-999.0,-999.0,46,-99.99,,,-99.99,,2013-01-18 09:08:00,
2013-01-18 04:13:00,21.6,-99.9,-100.00,North,-999,-999.0,-999.0,43,-99.99,,,-99.99,,2013-01-18 09:13:00,
2013-01-18 04:18:00,21.2,-99.9,-100.00,North,-999,-999.0,-999.0,39,-99.99,,,-99.99,,2013-01-18 09:18:00,
2013-01-18 04:23:00,20.8,-99.9,-100.00,North,-999,-999.0,-999.0,42,-99.99,,,-99.99,,2013-01-18 09:23:00,
2013-01-18 04:28:00,20.7,-99.9,-100.00,North,-999,-999.0,-999.0,39,-99.99,,,-99.99,,2013-01-18 09:28:00,
2013-01-18 04:33:00,20.3,-99.9,-100.00,North,-999,-999.0,-999.0,38,-99.99,,,-99.99,,2013-01-18 09:33:00,
2013-01-18 04:38:00,20.1,-99.9,-100.00,North,-999,-999.0,-999.0,39,-99.99,,,-99.99,,2013-01-18 09:38:00,
2013-01-18 04:43:00,19.8,-99.9,-100.00,North,-999,-999.0,-999.0,38,-99.99,,,-99.99,,2013-01-18 09:43:00,
2013-01-18 04:48:00,19.4,-99.9,-100.00,North,-999,-999.0,-999.0,39,-99.99,,,-99.99,,2013-01-18 09:48:00,
2013-01-18 04:53:00,19.2,-99.9,-100.00,North,-999,-999.0,-999.0,39,-99.99,,,-99.99,,2013-01-18 09:53:00,
2013-01-18 04:58:00,19.0,-99.9,-100.00,North,-999,-999.0,-999.0,38,-99.99,,,-99.99,,2013-01-18 09:58:00,
2013-01-18 05:03:00,18.9,-99.9,-100.00,North,-999,-999.0,-999.0,40,-99.99,,,-99.99,,2013-01-18 10:03:00,
2013-01-18 05:08:00,18.5,-99.9,-100.00,North,-999,-999.0,-999.0,40,-99.99,,,-99.99,,2013-01-18 10:08:00,
2013-01-18 05:13:00,18.3,-99.9,-100.00,North,-999,-999.0,-999.0,41,-99.99,,,-99.99,,2013-01-18 10:13:00,
2013-01-18 05:18:00,18.1,-99.9,-100.00,North,-999,-999.0,-999.0,40,-99.99,,,-99.99,,2013-01-18 10:18:00,
2013-01-18 05:23:00,18.0,-99.9,-100.00,North,-999,-999.0,-999.0,39,-99.99,,,-99.99,,2013-01-18 10:23:00,
2013-01-18 05:28:00,17.8,-99.9,-100.00,North,-999,-999.0,-999.0,39,-99.99,,,-99.99,,2013-01-18 10:28:00,
2013-01-18 05:33:00,17.6,-99.9,-100.00,North,-999,-999.0,-999.0,38,-99.99,,,-99.99,,2013-01-18 10:33:00,
2013-01-18 05:38:00,17.4,-99.9,-100.00,North,-999,-999.0,-999.0,39,-99.99,,,-99.99,,2013-01-18 10:38:00,
2013-01-18 05:43:00,17.2,-99.9,-100.00,North,-999,-999.0,-999.0,39,-99.99,,,-99.99,,2013-01-18 10:43:00,
2013-01-18 05:48:00,17.1,-99.9,-100.00,North,-999,-999.0,-999.0,39,-99.99,,,-99.99,,2013-01-18 10:48:00,
2013-01-18 05:53:00,17.1,-99.9,-100.00,North,-999,-999.0,-999.0,40,-99.99,,,-99.99,,2013-01-18 10:53:00,
2013-01-18 05:58:00,16.7,-99.9,-100.00,North,-999,-999.0,-999.0,38,-99.99,,,-99.99,,2013-01-18 10:58:00,
2013-01-18 06:03:00,16.7,-99.9,-100.00,North,-999,-999.0,-999.0,38,-99.99,,,-99.99,,2013-01-18 11:03:00,
2013-01-18 06:08:00,16.7,-99.9,-100.00,North,-999,-999.0,-999.0,38,-99.99,,,-99.99,,2013-01-18 11:08:00,
2013-01-18 06:15:00,16.5,-99.9,-100.00,North,-999,-999.0,-999.0,40,-99.99,,,-99.99,,2013-01-18 11:15:00,
2013-01-18 06:20:00,16.3,-99.9,-100.00,North,-999,-999.0,-999.0,41,-99.99,,,-99.99,,2013-01-18 11:20:00,
2013-01-18 06:25:00,16.2,-99.9,-100.00,North,-999,-999.0,-999.0,40,-99.99,,,-99.99,,2013-01-18 11:25:00,
2013-01-18 06:30:00,16.0,-99.9,-100.00,North,-999,-999.0,-999.0,40,-99.99,,,-99.99,,2013-01-18 11:30:00,
2013-01-18 06:35:00,16.0,-99.9,-100.00,North,-999,-999.0,-999.0,42,-99.99,,,-99.99,,2013-01-18 11:35:00,
2013-01-18 06:40:00,15.8,-99.9,-100.00,North,-999,-999.0,-999.0,43,-99.99,,,-99.99,,2013-01-18 11:40:00,
2013-01-18 06:45:00,15.8,-99.9,-100.00,North,-999,-999.0,-999.0,41,-99.99,,,-99.99,,2013-01-18 11:45:00,
2013-01-18 06:50:00,15.6,-99.9,-100.00,North,-999,-999.0,-999.0,41,-99.99,,,-99.99,,2013-01-18 11:50:00,
2013-01-18 06:55:00,15.4,-99.9,-100.00,North,-999,-999.0,-999.0,42,-99.99,,,-99.99,,2013-01-18 11:55:00,
2013-01-18 07:00:00,15.3,-99.9,-100.00,North,-999,-999.0,-999.0,43,-99.99,,,-99.99,,2013-01-18 12:00:00,
2013-01-18 07:08:00,15.3,-99.9,-100.00,North,-999,-999.0,-999.0,39,-99.99,,,-99.99,,2013-01-18 12:08:00,
2013-01-18 07:13:00,15.3,-99.9,-100.00,North,-999,-999.0,-999.0,40,-99.99,,,-99.99,,2013-01-18 12:13:00,
2013-01-18 07:18:00,15.3,-99.9,-100.00,North,-999,-999.0,-999.0,41,-99.99,,,-99.99,,2013-01-18 12:18:00,
2013-01-18 07:25:00,15.1,-99.9,-100.00,North,-999,-999.0,-999.0,42,-99.99,,,-99.99,,2013-01-18 12:25:00,
2013-01-18 07:30:00,14.9,-99.9,-100.00,North,-999,-999.0,-999.0,43,-99.99,,,-99.99,,2013-01-18 12:30:00,
2013-01-18 07:35:00,14.9,-99.9,-100.00,North,-999,-999.0,-999.0,42,-99.99,,,-99.99,,2013-01-18 12:35:00,
2013-01-18 07:40:00,14.9,-99.9,-100.00,North,-999,-999.0,-999.0,41,-99.99,,,-99.99,,2013-01-18 12:40:00,
2013-01-18 07:45:00,14.9,-99.9,-100.00,North,-999,-999.0,-999.0,42,-99.99,,,-99.99,,2013-01-18 12:45:00,
2013-01-18 07:50:00,14.9,-99.9,-100.00,North,-999,-999.0,-999.0,41,-99.99,,,-99.99,,2013-01-18 12:50:00,
2013-01-18 07:55:00,14.9,-99.9,-100.00,North,-999,-999.0,-999.0,41,-99.99,,,-99.99,,2013-01-18 12:55:00,
2013-01-18 08:00:00,15.1,-99.9,-100.00,North,-999,-999.0,-999.0,41,-99.99,,,-99.99,,2013-01-18 13:00:00,
2013-01-18 08:05:00,15.1,-99.9,-100.00,North,-999,-999.0,-999.0,42,-99.99,,,-99.99,,2013-01-18 13:05:00,
2013-01-18 08:10:00,15.3,-99.9,-100.00,North,-999,-999.0,-999.0,38,-99.99,,,-99.99,,2013-01-18 13:10:00,
2013-01-18 08:15:00,15.4,-99.9,-100.00,North,-999,-999.0,-999.0,38,-99.99,,,-99.99,,2013-01-18 13:15:00,
2013-01-18 08:20:00,15.6,-99.9,-100.00,North,-999,-999.0,-999.0,36,-99.99,,,-99.99,,2013-01-18 13:20:00,
2013-01-18 08:25:00,15.8,-99.9,-100.00,North,-999,-999.0,-999.0,36,-99.99,,,-99.99,,2013-01-18 13:25:00,
2013-01-18 08:30:00,15.8,-99.9,-100.00,North,-999,-999.0,-999.0,36,-99.99,,,-99.99,,2013-01-18 13:30:00,
2013-01-18 08:35:00,15.8,-99.9,-100.00,North,-999,-999.0,-999.0,35,-99.99,,,-99.99,,2013-01-18 13:35:00,
2013-01-18 08:40:00,15.8,-99.9,-100.00,North,-999,-999.0,-999.0,33,-99.99,,,-99.99,,2013-01-18 13:40:00,
2013-01-18 08:45:00,16.2,-99.9,-100.00,North,-999,-999.0,-999.0,33,-99.99,,,-99.99,,2013-01-18 13:45:00,
2013-01-18 08:50:00,16.2,-99.9,-100.00,North,-999,-999.0,-999.0,34,-99.99,,,-99.99,,2013-01-18 13:50:00,
2013-01-18 08:55:00,16.5,-99.9,-100.00,North,-999,-999.0,-999.0,35,-99.99,,,-99.99,,2013-01-18 13:55:00,
2013-01-18 09:00:00,16.5,-99.9,-100.00,North,-999,-999.0,-999.0,32,-99.99,,,-99.99,,2013-01-18 14:00:00,
2013-01-18 09:05:00,16.3,-99.9,-100.00,North,-999,-999.0,-999.0,31,-99.99,,,-99.99,,2013-01-18 14:05:00,
2013-01-18 09:10:00,16.2,-99.9,-100.00,North,-999,-999.0,-999.0,30,-99.99,,,-99.99,,2013-01-18 14:10:00,
2013-01-18 09:15:00,16.3,-99.9,-100.00,North,-999,-999.0,-999.0,30,-99.99,,,-99.99,,2013-01-18 14:15:00,
2013-01-18 09:20:00,16.5,-99.9,-100.00,North,-999,-999.0,-999.0,30,-99.99,,,-99.99,,2013-01-18 14:20:00,
2013-01-18 09:25:00,16.7,-99.9,-100.00,North,-999,-999.0,-999.0,30,-99.99,,,-99.99,,2013-01-18 14:25:00,
2013-01-18 09:30:00,16.9,-99.9,-100.00,North,-999,-999.0,-999.0,32,-99.99,,,-99.99,,2013-01-18 14:30:00,
2013-01-18 09:35:00,17.1,-99.9,-100.00,North,-999,-999.0,-999.0,32,-99.99,,,-99.99,,2013-01-18 14:35:00,
2013-01-18 09:40:00,17.2,-99.9,-100.00,North,-999,-999.0,-999.0,32,-99.99,,,-99.99,,2013-01-18 14:40:00,
2013-01-18 09:45:00,17.4,-99.9,-100.00,North,-999,-999.0,-999.0,32,-99.99,,,-99.99,,2013-01-18 14:45:00,
2013-01-18 09:50:00,17.6,-99.9,-100.00,North,-999,-999.0,-999.0,34,-99.99,,,-99.99,,2013-01-18 14:50:00,
2013-01-18 09:55:00,17.8,-99.9,-100.00,North,-999,-999.0,-999.0,33,-99.99,,,-99.99,,2013-01-18 14:55:00,
2013-01-18 10:00:00,17.6,-99.9,-100.00,North,-999,-999.0,-999.0,34,-99.99,,,-99.99,,2013-01-18 15:00:00,
2013-01-18 10:05:00,17.4,-99.9,-100.00,North,-999,-999.0,-999.0,31,-99.99,,,-99.99,,2013-01-18 15:05:00,
2013-01-18 10:10:00,17.8,-99.9,-100.00,North,-999,-999.0,-999.0,32,-99.99,,,-99.99,,2013-01-18 15:10:00,
2013-01-18 10:15:00,18.0,-99.9,-100.00,North,-999,-999.0,-999.0,32,-99.99,,,-99.99,,2013-01-18 15:15:00,
2013-01-18 10:20:00,18.0,-99.9,-100.00,North,-999,-999.0,-999.0,31,-99.99,,,-99.99,,2013-01-18 15:20:00,
2013-01-18 10:25:00,18.0,-99.9,-100.00,North,-999,-999.0,-999.0,31,-99.99,,,-99.99,,2013-01-18 15:25:00,
2013-01-18 10:30:00,18.1,-99.9,-100.00,North,-999,-999.0,-999.0,31,-99.99,,,-99.99,,2013-01-18 15:30:00,
2013-01-18 10:35:00,18.0,-99.9,-100.00,North,-999,-999.0,-999.0,31,-99.99,,,-99.99,,2013-01-18 15:35:00,
2013-01-18 10:40:00,18.1,-99.9,-100.00,North,-999,-999.0,-999.0,32,-99.99,,,-99.99,,2013-01-18 15:40:00,
2013-01-18 10:45:00,18.3,-99.9,-100.00,North,-999,-999.0,-999.0,31,-99.99,,,-99.99,,2013-01-18 15:45:00,
2013-01-18 10:50:00,18.3,-99.9,-100.00,North,-999,-999.0,-999.0,29,-99.99,,,-99.99,,2013-01-18 15:50:00,
2013-01-18 10:55:00,18.5,-99.9,-100.00,North,-999,-999.0,-999.0,30,-99.99,,,-99.99,,2013-01-18 15:55:00,
2013-01-18 11:01:00,18.9,-99.9,-100.00,North,-999,-999.0,-999.0,32,-99.99,,,-99.99,,2013-01-18 16:01:00,
2013-01-18 11:06:00,18.7,-99.9,-100.00,North,-999,-999.0,-999.0,31,-99.99,,,-99.99,,2013-01-18 16:06:00,
2013-01-18 11:11:00,18.7,-99.9,-100.00,North,-999,-999.0,-999.0,31,-99.99,,,-99.99,,2013-01-18 16:11:00,
2013-01-18 11:16:00,18.9,-99.9,-100.00,North,-999,-999.0,-999.0,30,-99.99,,,-99.99,,2013-01-18 16:16:00,
2013-01-18 11:21:00,18.9,-99.9,-100.00,North,-999,-999.0,-999.0,30,-99.99,,,-99.99,,2013-01-18 16:21:00,
2013-01-18 11:26:00,19.0,-99.9,-100.00,North,-999,-999.0,-999.0,32,-99.99,,,-99.99,,2013-01-18 16:26:00,
2013-01-18 11:31:00,19.2,-99.9,-100.00,North,-999,-999.0,-999.0,31,-99.99,,,-99.99,,2013-01-18 16:31:00,
2013-01-18 11:36:00,19.4,-99.9,-100.00,North,-999,-999.0,-999.0,31,-99.99,,,-99.99,,2013-01-18 16:36:00,
2013-01-18 11:43:00,19.4,-99.9,-100.00,North,-999,-999.0,-999.0,33,-99.99,,,-99.99,,2013-01-18 16:43:00,
2013-01-18 11:48:00,19.6,-99.9,-100.00,North,-999,-999.0,-999.0,32,-99.99,,,-99.99,,2013-01-18 16:48:00,
2013-01-18 11:53:00,19.6,-99.9,-100.00,North,-999,-999.0,-999.0,30,-99.99,,,-99.99,,2013-01-18 16:53:00,
2013-01-18 11:58:00,19.6,-99.9,-100.00,North,-999,-999.0,-999.0,31,-99.99,,,-99.99,,2013-01-18 16:58:00,
2013-01-18 12:03:00,19.9,-99.9,-100.00,North,-999,-999.0,-999.0,32,-99.99,,,-99.99,,2013-01-18 17:03:00,
2013-01-18 12:08:00,19.9,-99.9,-100.00,North,-999,-999.0,-999.0,31,-99.99,,,-99.99,,2013-01-18 17:08:00,
2013-01-18 12:13:00,19.9,-99.9,-100.00,North,-999,-999.0,-999.0,31,-99.99,,,-99.99,,2013-01-18 17:13:00,
2013-01-18 12:18:00,20.3,-99.9,-100.00,North,-999,-999.0,-999.0,32,-99.99,,,-99.99,,2013-01-18 17:18:00,
2013-01-18 12:23:00,20.3,-99.9,-100.00,North,-999,-999.0,-999.0,32,-99.99,,,-99.99,,2013-01-18 17:23:00,
2013-01-18 12:28:00,20.5,-99.9,-100.00,North,-999,-999.0,-999.0,31,-99.99,,,-99.99,,2013-01-18 17:28:00,
2013-01-18 12:36:00,20.7,-99.9,-100.00,North,-999,-999.0,-999.0,31,-99.99,,,-99.99,,2013-01-18 17:36:00,
2013-01-18 12:41:00,21.0,-99.9,-100.00,North,-999,-999.0,-999.0,31,-99.99,,,-99.99,,2013-01-18 17:41:00,
2013-01-18 12:46:00,20.7,-99.9,-100.00,North,-999,-999.0,-999.0,30,-99.99,,,-99.99,,2013-01-18 17:46:00,
2013-01-18 12:51:00,20.7,-99.9,-100.00,North,-999,-999.0,-999.0,31,-99.99,,,-99.99,,2013-01-18 17:51:00,
2013-01-18 12:56:00,20.8,-99.9,-100.00,North,-999,-999.0,-999.0,31,-99.99,,,-99.99,,2013-01-18 17:56:00,
2013-01-18 13:01:00,21.2,-99.9,-100.00,North,-999,-999.0,-999.0,33,-99.99,,,-99.99,,2013-01-18 18:01:00,
2013-01-18 13:06:00,21.0,-99.9,-100.00,North,-999,-999.0,-999.0,31,-99.99,,,-99.99,,2013-01-18 18:06:00,
2013-01-18 13:11:00,21.2,-99.9,-100.00,North,-999,-999.0,-999.0,31,-99.99,,,-99.99,,2013-01-18 18:11:00,
2013-01-18 13:16:00,21.2,-99.9,-100.00,North,-999,-999.0,-999.0,31,-99.99,,,-99.99,,2013-01-18 18:16:00,
2013-01-18 13:21:00,21.2,-99.9,-100.00,North,-999,-999.0,-999.0,32,-99.99,,,-99.99,,2013-01-18 18:21:00,
2013-01-18 13:26:00,21.4,-99.9,-100.00,North,-999,-999.0,-999.0,30,-99.99,,,-99.99,,2013-01-18 18:26:00,
2013-01-18 13:31:00,21.6,-99.9,-100.00,North,-999,-999.0,-999.0,32,-99.99,,,-99.99,,2013-01-18 18:31:00,
2013-01-18 13:36:00,21.6,-99.9,-100.00,North,-999,-999.0,-999.0,31,-99.99,,,-99.99,,2013-01-18 18:36:00,
2013-01-18 13:41:00,21.4,-99.9,-100.00,North,-999,-999.0,-999.0,31,-99.99,,,-99.99,,2013-01-18 18:41:00,
2013-01-18 13:46:00,21.2,-99.9,-100.00,North,-999,-999.0,-999.0,33,-99.99,,,-99.99,,2013-01-18 18:46:00,
2013-01-18 13:51:00,21.2,-99.9,-100.00,North,-999,-999.0,-999.0,33,-99.99,,,-99.99,,2013-01-18 18:51:00,
2013-01-18 13:56:00,21.2,-99.9,-100.00,North,-999,-999.0,-999.0,33,-99.99,,,-99.99,,2013-01-18 18:56:00,
2013-01-18 14:01:00,21.0,-99.9,-100.00,North,-999,-999.0,-999.0,33,-99.99,,,-99.99,,2013-01-18 19:01:00,
2013-01-18 14:06:00,21.0,-99.9,-100.00,North,-999,-999.0,-999.0,34,-99.99,,,-99.99,,2013-01-18 19:06:00,
2013-01-18 14:11:00,20.8,-99.9,-100.00,North,-999,-999.0,-999.0,34,-99.99,,,-99.99,,2013-01-18 19:11:00,
2013-01-18 14:16:00,20.8,-99.9,-100.00,North,-999,-999.0,-999.0,35,-99.99,,,-99.99,,2013-01-18 19:16:00,
2013-01-18 14:21:00,20.8,-99.9,-100.00,North,-999,-999.0,-999.0,34,-99.99,,,-99.99,,2013-01-18 19:21:00,
2013-01-18 14:26:00,20.8,-99.9,-100.00,North,-999,-999.0,-999.0,36,-99.99,,,-99.99,,2013-01-18 19:26:00,
2013-01-18 14:31:00,20.7,-99.9,-100.00,North,-999,-999.0,-999.0,34,-99.99,,,-99.99,,2013-01-18 19:31:00,
2013-01-18 14:36:00,20.7,-99.9,-100.00,North,-999,-999.0,-999.0,35,-99.99,,,-99.99,,2013-01-18 19:36:00,
2013-01-18 14:41:00,20.7,-99.9,-100.00,North,-999,-999.0,-999.0,35,-99.99,,,-99.99,,2013-01-18 19:41:00,
2013-01-18 14:46:00,20.5,-99.9,-100.00,North,-999,-999.0,-999.0,36,-99.99,,,-99.99,,2013-01-18 19:46:00,
2013-01-18 14:51:00,20.5,-99.9,-100.00,North,-999,-999.0,-999.0,36,-99.99,,,-99.99,,2013-01-18 19:51:00,
2013-01-18 14:56:00,20.5,-99.9,-100.00,North,-999,-999.0,-999.0,36,-99.99,,,-99.99,,2013-01-18 19:56:00,
2013-01-18 15:01:00,20.3,-99.9,-100.00,North,-999,-999.0,-999.0,36,-99.99,,,-99.99,,2013-01-18 20:01:00,
2013-01-18 15:06:00,20.1,-99.9,-100.00,North,-999,-999.0,-999.0,37,-99.99,,,-99.99,,2013-01-18 20:06:00,
2013-01-18 15:11:00,20.1,-99.9,-100.00,North,-999,-999.0,-999.0,36,-99.99,,,-99.99,,2013-01-18 20:11:00,
2013-01-18 15:16:00,20.1,-99.9,-100.00,North,-999,-999.0,-999.0,38,-99.99,,,-99.99,,2013-01-18 20:16:00,
2013-01-18 15:21:00,19.8,-99.9,-100.00,North,-999,-999.0,-999.0,35,-99.99,,,-99.99,,2013-01-18 20:21:00,
2013-01-18 15:26:00,19.9,-99.9,-100.00,North,-999,-999.0,-999.0,37,-99.99,,,-99.99,,2013-01-18 20:26:00,
2013-01-18 15:31:00,19.8,-99.9,-100.00,North,-999,-999.0,-999.0,38,-99.99,,,-99.99,,2013-01-18 20:31:00,
2013-01-18 15:36:00,19.8,-99.9,-100.00,North,-999,-999.0,-999.0,37,-99.99,,,-99.99,,2013-01-18 20:36:00,
2013-01-18 15:43:00,19.8,-99.9,-100.00,North,-999,-999.0,-999.0,38,-99.99,,,-99.99,,2013-01-18 20:43:00,
2013-01-18 15:48:00,19.6,-99.9,-100.00,North,-999,-999.0,-999.0,38,-99.99,,,-99.99,,2013-01-18 20:48:00,
2013-01-18 15:53:00,19.4,-99.9,-100.00,North,-999,-999.0,-999.0,38,-99.99,,,-99.99,,2013-01-18 20:53:00,
2013-01-18 15:58:00,19.4,-99.9,-100.00,North,-999,-999.0,-999.0,37,-99.99,,,-99.99,,2013-01-18 20:58:00,
2013-01-18 16:03:00,19.4,-99.9,-100.00,North,-999,-999.0,-999.0,37,-99.99,,,-99.99,,2013-01-18 21:03:00,
2013-01-18 16:08:00,19.2,-99.9,-100.00,North,-999,-999.0,-999.0,39,-99.99,,,-99.99,,2013-01-18 21:08:00,
2013-01-18 16:13:00,19.2,-99.9,-100.00,North,-999,-999.0,-999.0,37,-99.99,,,-99.99,,2013-01-18 21:13:00,
2013-01-18 16:18:00,19.2,-99.9,-100.00,North,-999,-999.0,-999.0,38,-99.99,,,-99.99,,2013-01-18 21:18:00,
2013-01-18 16:23:00,19.0,-99.9,-100.00,North,-999,-999.0,-999.0,38,-99.99,,,-99.99,,2013-01-18 21:23:00,
2013-01-18 16:28:00,18.9,-99.9,-100.00,North,-999,-999.0,-999.0,38,-99.99,,,-99.99,,2013-01-18 21:28:00,
2013-01-18 16:33:00,18.9,-99.9,-100.00,North,-999,-999.0,-999.0,39,-99.99,,,-99.99,,2013-01-18 21:33:00,
2013-01-18 16:38:00,18.7,-99.9,-100.00,North,-999,-999.0,-999.0,40,-99.99,,,-99.99,,2013-01-18 21:38:00,
2013-01-18 16:44:00,18.5,-99.9,-100.00,North,-999,-999.0,-999.0,40,-99.99,,,-99.99,,2013-01-18 21:44:00,
2013-01-18 16:51:00,18.3,-99.9,-100.00,North,-999,-999.0,-999.0,40,-99.99,,,-99.99,,2013-01-18 21:51:00,
2013-01-18 16:56:00,18.3,-99.9,-100.00,North,-999,-999.0,-999.0,40,-99.99,,,-99.99,,2013-01-18 21:56:00,
2013-01-18 17:01:00,18.1,-99.9,-100.00,North,-999,-999.0,-999.0,40,-99.99,,,-99.99,,2013-01-18 22:01:00,
2013-01-18 17:06:00,18.1,-99.9,-100.00,North,-999,-999.0,-999.0,41,-99.99,,,-99.99,,2013-01-18 22:06:00,
2013-01-18 17:11:00,18.0,-99.9,-100.00,North,-999,-999.0,-999.0,41,-99.99,,,-99.99,,2013-01-18 22:11:00,
2013-01-18 17:16:00,18.0,-99.9,-100.00,North,-999,-999.0,-999.0,41,-99.99,,,-99.99,,2013-01-18 22:16:00,
2013-01-18 17:24:00,17.8,-99.9,-100.00,North,-999,-999.0,-999.0,40,-99.99,,,-99.99,,2013-01-18 22:24:00,
2013-01-18 17:29:00,17.6,-99.9,-100.00,North,-999,-999.0,-999.0,41,-99.99,,,-99.99,,2013-01-18 22:29:00,
2013-01-18 17:34:00,17.6,-99.9,-100.00,North,-999,-999.0,-999.0,41,-99.99,,,-99.99,,2013-01-18 22:34:00,
2013-01-18 17:39:00,17.4,-99.9,-100.00,North,-999,-999.0,-999.0,43,-99.99,,,-99.99,,2013-01-18 22:39:00,
2013-01-18 17:44:00,17.2,-99.9,-100.00,North,-999,-999.0,-999.0,44,-99.99,,,-99.99,,2013-01-18 22:44:00,
2013-01-18 17:49:00,17.1,-99.9,-100.00,North,-999,-999.0,-999.0,45,-99.99,,,-99.99,,2013-01-18 22:49:00,
2013-01-18 17:54:00,16.9,-99.9,-100.00,North,-999,-999.0,-999.0,45,-99.99,,,-99.99,,2013-01-18 22:54:00,
2013-01-18 17:59:00,16.9,-99.9,-100.00,North,-999,-999.0,-999.0,46,-99.99,,,-99.99,,2013-01-18 22:59:00,
2013-01-18 18:04:00,16.5,-99.9,-100.00,North,-999,-999.0,-999.0,49,-99.99,,,-99.99,,2013-01-18 23:04:00,
2013-01-18 18:09:00,16.3,-1.6,-100.00,North,-999,-999.0,-999.0,50,-99.99,,,-99.99,,2013-01-18 23:09:00,
2013-01-18 18:14:00,16.2,-1.5,-100.00,North,-999,-999.0,-999.0,51,-99.99,,,-99.99,,2013-01-18 23:14:00,
2013-01-18 18:19:00,16.2,-1.6,-100.00,North,-999,-999.0,-999.0,50,-99.99,,,-99.99,,2013-01-18 23:19:00,
2013-01-18 18:24:00,16.0,-1.7,-100.00,North,-999,-999.0,-999.0,50,-99.99,,,-99.99,,2013-01-18 23:24:00,
2013-01-18 18:29:00,15.8,-1.9,-100.00,North,-999,-999.0,-999.0,50,-99.99,,,-99.99,,2013-01-18 23:29:00,
2013-01-18 18:34:00,15.8,-99.9,-100.00,North,-999,-999.0,-999.0,49,-99.99,,,-99.99,,2013-01-18 23:34:00,
2013-01-18 18:39:00,15.8,-99.9,-100.00,North,-999,-999.0,-999.0,48,-99.99,,,-99.99,,2013-01-18 23:39:00,
2013-01-18 18:44:00,15.8,-99.9,-100.00,North,-999,-999.0,-999.0,49,-99.99,,,-99.99,,2013-01-18 23:44:00,
2013-01-18 18:49:00,15.8,-1.9,-100.00,North,-999,-999.0,-999.0,50,-99.99,,,-99.99,,2013-01-18 23:49:00,
2013-01-18 18:54:00,15.8,-99.9,-100.00,North,-999,-999.0,-999.0,48,-99.99,,,-99.99,,2013-01-18 23:54:00,
2013-01-18 18:59:00,15.8,-99.9,-100.00,North,-999,-999.0,-999.0,49,-99.99,,,-99.99,,2013-01-18 23:59:00,
2013-01-18 19:04:00,15.8,-1.4,-100.00,North,-999,-999.0,-999.0,52,-99.99,,,-99.99,,2013-01-19 00:04:00,
2013-01-18 19:09:00,15.8,-1.9,-100.00,North,-999,-999.0,-999.0,50,-99.99,,,-99.99,,2013-01-19 00:09:00,
2013-01-18 19:14:00,15.8,-1.3,-100.00,North,-999,-999.0,-999.0,52,-99.99,,,-99.99,,2013-01-19 00:14:00,
2013-01-18 19:19:00,15.8,-1.6,-100.00,North,-999,-999.0,-999.0,51,-99.99,,,-99.99,,2013-01-19 00:19:00,
2013-01-18 19:24:00,15.6,-1.7,-100.00,North,-999,-999.0,-999.0,51,-99.99,,,-99.99,,2013-01-19 00:24:00,
2013-01-18 19:29:00,15.6,-1.5,-100.00,North,-999,-999.0,-999.0,52,-99.99,,,-99.99,,2013-01-19 00:29:00,
2013-01-18 19:34:00,15.6,-1.8,-100.00,North,-999,-999.0,-999.0,51,-99.99,,,-99.99,,2013-01-19 00:34:00,
2013-01-18 19:39:00,15.8,-1.3,-100.00,North,-999,-999.0,-999.0,52,-99.99,,,-99.99,,2013-01-19 00:39:00,
2013-01-18 19:44:00,15.6,-1.2,-100.00,North,-999,-999.0,-999.0,53,-99.99,,,-99.99,,2013-01-19 00:44:00,
2013-01-18 19:49:00,15.6,-0.5,-100.00,North,-999,-999.0,-999.0,55,-99.99,,,-99.99,,2013-01-19 00:49:00,
2013-01-18 19:54:00,15.4,-0.9,-100.00,North,-999,-999.0,-999.0,54,-99.99,,,-99.99,,2013-01-19 00:54:00,
2013-01-18 19:59:00,15.4,-0.8,-100.00,North,-999,-999.0,-999.0,54,-99.99,,,-99.99,,2013-01-19 00:59:00,
2013-01-18 20:04:00,15.4,-1.1,-100.00,North,-999,-999.0,-999.0,54,-99.99,,,-99.99,,2013-01-19 01:04:00,
2013-01-18 20:09:00,15.4,-0.9,-100.00,North,-999,-999.0,-999.0,54,-99.99,,,-99.99,,2013-01-19 01:09:00,
2013-01-18 20:14:00,15.3,-1.3,-100.00,North,-999,-999.0,-999.0,54,-99.99,,,-99.99,,2013-01-19 01:14:00,
2013-01-18 20:19:00,15.3,-1.5,-100.00,North,-999,-999.0,-999.0,53,-99.99,,,-99.99,,2013-01-19 01:19:00,
2013-01-18 20:24:00,15.3,-1.0,-100.00,North,-999,-999.0,-999.0,54,-99.99,,,-99.99,,2013-01-19 01:24:00,
2013-01-18 20:29:00,15.3,-0.8,-100.00,North,-999,-999.0,-999.0,55,-99.99,,,-99.99,,2013-01-19 01:29:00,
2013-01-18 20:34:00,15.1,-0.5,-100.00,North,-999,-999.0,-999.0,56,-99.99,,,-99.99,,2013-01-19 01:34:00,
2013-01-18 20:39:00,15.1,-0.4,-100.00,North,-999,-999.0,-999.0,56,-99.99,,,-99.99,,2013-01-19 01:39:00,
2013-01-18 20:44:00,15.1,-0.8,-100.00,North,-999,-999.0,-999.0,55,-99.99,,,-99.99,,2013-01-19 01:44:00,
2013-01-18 20:49:00,15.1,-0.6,-100.00,North,-999,-999.0,-999.0,56,-99.99,,,-99.99,,2013-01-19 01:49:00,
2013-01-18 20:54:00,15.1,-0.9,-100.00,North,-999,-999.0,-999.0,55,-99.99,,,-99.99,,2013-01-19 01:54:00,
2013-01-18 20:59:00,15.3,-0.9,-100.00,North,-999,-999.0,-999.0,55,-99.99,,,-99.99,,2013-01-19 01:59:00,
2013-01-18 21:04:00,15.3,-1.2,-100.00,North,-999,-999.0,-999.0,54,-99.99,,,-99.99,,2013-01-19 02:04:00,
2013-01-18 21:09:00,15.3,-0.6,-100.00,North,-999,-999.0,-999.0,55,-99.99,,,-99.99,,2013-01-19 02:09:00,
2013-01-18 21:14:00,15.3,0.1,-100.00,North,-999,-999.0,-999.0,57,-99.99,,,-99.99,,2013-01-19 02:14:00,
2013-01-18 21:19:00,15.3,-0.7,-100.00,North,-999,-999.0,-999.0,55,-99.99,,,-99.99,,2013-01-19 02:19:00,
2013-01-18 21:24:00,15.3,-1.3,-100.00,North,-999,-999.0,-999.0,53,-99.99,,,-99.99,,2013-01-19 02:24:00,
2013-01-18 21:29:00,15.4,-1.4,-100.00,North,-999,-999.0,-999.0,53,-99.99,,,-99.99,,2013-01-19 02:29:00,
2013-01-18 21:34:00,15.6,-0.6,-100.00,North,-999,-999.0,-999.0,54,-99.99,,,-99.99,,2013-01-19 02:34:00,
2013-01-18 21:39:00,15.8,-1.0,-100.00,North,-999,-999.0,-999.0,53,-99.99,,,-99.99,,2013-01-19 02:39:00,
2013-01-18 21:44:00,15.8,-0.8,-100.00,North,-999,-999.0,-999.0,53,-99.99,,,-99.99,,2013-01-19 02:44:00,
2013-01-18 21:49:00,16.0,-1.1,-100.00,North,-999,-999.0,-999.0,52,-99.99,,,-99.99,,2013-01-19 02:49:00,
2013-01-18 21:54:00,16.0,-0.6,-100.00,North,-999,-999.0,-999.0,54,-99.99,,,-99.99,,2013-01-19 02:54:00,
2013-01-18 21:59:00,16.0,-0.9,-100.00,North,-999,-999.0,-999.0,53,-99.99,,,-99.99,,2013-01-19 02:59:00,
2013-01-18 22:04:00,16.0,-0.4,-100.00,North,-999,-999.0,-999.0,54,-99.99,,,-99.99,,2013-01-19 03:04:00,
2013-01-18 22:09:00,16.0,-0.8,-100.00,North,-999,-999.0,-999.0,53,-99.99,,,-99.99,,2013-01-19 03:09:00,
2013-01-18 22:14:00,15.8,-0.2,-100.00,North,-999,-999.0,-999.0,55,-99.99,,,-99.99,,2013-01-19 03:14:00,
2013-01-18 22:19:00,16.0,-0.5,-100.00,North,-999,-999.0,-999.0,54,-99.99,,,-99.99,,2013-01-19 03:19:00,
2013-01-18 22:24:00,16.0,-0.7,-100.00,North,-999,-999.0,-999.0,53,-99.99,,,-99.99,,2013-01-19 03:24:00,
2013-01-18 22:29:00,16.0,-0.4,-100.00,North,-999,-999.0,-999.0,54,-99.99,,,-99.99,,2013-01-19 03:29:00,
2013-01-18 22:34:00,15.8,-0.3,-100.00,North,-999,-999.0,-999.0,55,-99.99,,,-99.99,,2013-01-19 03:34:00,
2013-01-18 22:39:00,15.8,-0.7,-100.00,North,-999,-999.0,-999.0,54,-99.99,,,-99.99,,2013-01-19 03:39:00,
2013-01-18 22:44:00,16.0,-0.7,-100.00,North,-999,-999.0,-999.0,53,-99.99,,,-99.99,,2013-01-19 03:44:00,
2013-01-18 22:49:00,16.0,-0.5,-100.00,North,-999,-999.0,-999.0,54,-99.99,,,-99.99,,2013-01-19 03:49:00,
2013-01-18 22:54:00,16.0,-0.4,-100.00,North,-999,-999.0,-999.0,54,-99.99,,,-99.99,,2013-01-19 03:54:00,
2013-01-18 22:59:00,16.0,-0.6,-100.00,North,-999,-999.0,-999.0,53,-99.99,,,-99.99,,2013-01-19 03:59:00,
2013-01-18 23:04:00,16.2,-0.1,-100.00,North,-999,-999.0,-999.0,54,-99.99,,,-99.99,,2013-01-19 04:04:00,
2013-01-18 23:09:00,16.2,-0.3,-100.00,North,-999,-999.0,-999.0,54,-99.99,,,-99.99,,2013-01-19 04:09:00,
2013-01-18 23:14:00,16.3,1.4,-100.00,North,-999,-999.0,-999.0,58,-99.99,,,-99.99,,2013-01-19 04:14:00,
2013-01-18 23:19:00,16.7,0.4,-100.00,North,-999,-999.0,-999.0,54,-99.99,,,-99.99,,2013-01-19 04:19:00,
2013-01-18 23:24:00,17.1,0.3,-100.00,North,-999,-999.0,-999.0,53,-99.99,,,-99.99,,2013-01-19 04:24:00,
2013-01-18 23:29:00,17.2,0.4,-100.00,North,-999,-999.0,-999.0,53,-99.99,,,-99.99,,2013-01-19 04:29:00,
2013-01-18 23:34:00,17.6,0.8,-100.00,North,-999,-999.0,-999.0,53,-99.99,,,-99.99,,2013-01-19 04:34:00,
2013-01-18 23:42:00,18.0,0.8,-100.00,North,-999,-999.0,-999.0,52,-99.99,,,-99.99,,2013-01-19 04:42:00,
2013-01-18 23:47:00,18.3,0.7,-100.00,North,-999,-999.0,-999.0,51,-99.99,,,-99.99,,2013-01-19 04:47:00,
2013-01-18 23:52:00,18.5,1.5,-100.00,North,-999,-999.0,-999.0,52,-99.99,,,-99.99,,2013-01-19 04:52:00,
2013-01-18 23:57:00,18.7,1.6,-100.00,North,-999,-999.0,-999.0,52,-99.99,,,-99.99,,2013-01-19 04:57:00,